Weather History for KSDA - October, 2011

Change the Weather History Date:

Wednesday, October 19, 2011

  Actual Average (KOMA) Record (KOMA)
Temperature  
Mean Temperature 40 °F 52 °F  
Max Temperature 50 °F 64 °F 87 °F (2003)
Min Temperature 30 °F 41 °F 13 °F (1972)
Degree Days  
Heating Degree Days 25 13  
Month to date heating degree days 193  
Since 1 July heating degree days 296  
Cooling Degree Days 0 0  
Month to date cooling degree days 12  
Year to date cooling degree days 1109  
Moisture  
Dew Point 22 °F    
Average Humidity 52    
Maximum Humidity 69    
Minimum Humidity 32    
Precipitation  
Precipitation 0.00 in 0.07 in 2.14 in (1877)
Month to date precipitation 1.38  
Year to date precipitation 27.17  
Snow  
Snow 0.00 in 0.00 in - ()
Month to date snowfall 0.1  
Since 1 July snowfall 0.1  
Snow Depth -    
Sea Level Pressure  
Sea Level Pressure 30.07 in    
Wind  
Wind Speed 8 mph (NNW)    
Max Wind Speed 16 mph    
Max Gust Speed 24 mph    
Visibility 10 miles    
Events      
T = Trace of Precipitation, MM = Missing Value Source: NWS Daily Summary

Daily Weather History Graph

Daily Weather History Graph

Search for Another Location

Airport or City:

Trip Planner

Search our weather history database for the weather conditions in past years. The results will help you decide how hot, cold, wet, or windy it might be!

Date:

Astronomy

Oct. 19, 2011 Rise Set
Actual Time 7:36 AM CDT 6:35 PM CDT
Civil Twilight 7:09 AM CDT 7:03 PM CDT
Nautical Twilight 6:37 AM CDT 7:35 PM CDT
Astronomical Twilight 6:05 AM CDT 8:06 PM CDT
Moon No Moon Rise 2:09 PM CDT (10/19)
Length of Visible Light 11h 54m
Length of Day
10h 58m
Waning Gibbous, 54% of the Moon is Illuminated
Oct 19
Waning Gibbous
Oct 19
Last Quarter
Oct 26
New
Nov 2
First Quarter
Nov 10
Full

Hourly Weather History & Observations

Time (CDT) Temp. Windchill Dew Point Humidity Pressure Visibility Wind Dir Wind Speed Gust Speed Precip Events Conditions
12:15 AM 35.6 °F 31.7 °F 23.0 °F 60% 30.07 in 10.0 mi North 4.6 mph - N/A   Scattered Clouds
12:35 AM 33.8 °F 29.6 °F 23.0 °F 65% 30.06 in 10.0 mi North 4.6 mph - N/A   Clear
12:55 AM 35.6 °F 31.7 °F 23.0 °F 60% 30.06 in 10.0 mi North 4.6 mph - N/A   Scattered Clouds
1:15 AM 33.8 °F 29.6 °F 23.0 °F 65% 30.06 in 10.0 mi NNW 4.6 mph - N/A   Scattered Clouds
1:35 AM 33.8 °F 27.7 °F 23.0 °F 65% 30.06 in 10.0 mi North 6.9 mph - N/A   Scattered Clouds
1:55 AM 33.8 °F 29.6 °F 21.2 °F 60% 30.05 in 10.0 mi NNW 4.6 mph - N/A   Scattered Clouds
2:15 AM 33.8 °F 30.8 °F 21.2 °F 60% 30.05 in 10.0 mi North 3.5 mph - N/A   Clear
2:35 AM 33.8 °F 30.8 °F 21.2 °F 60% 30.05 in 10.0 mi North 3.5 mph - N/A   Scattered Clouds
3:15 AM 33.8 °F 28.6 °F 21.2 °F 60% 30.05 in 10.0 mi North 5.8 mph - N/A   Scattered Clouds
3:35 AM 33.8 °F 27.0 °F 21.2 °F 60% 30.05 in 10.0 mi NNW 8.1 mph - N/A   Clear
3:55 AM 33.8 °F 27.0 °F 21.2 °F 60% 30.05 in 10.0 mi NNW 8.1 mph - N/A   Clear
4:15 AM 33.8 °F 27.7 °F 21.2 °F 60% 30.05 in 10.0 mi NNW 6.9 mph - N/A   Scattered Clouds
4:35 AM 33.8 °F 27.7 °F 21.2 °F 60% 30.06 in 10.0 mi NNW 6.9 mph - N/A   Scattered Clouds
5:15 AM 33.8 °F 27.7 °F 21.2 °F 60% 30.06 in 10.0 mi NNW 6.9 mph - N/A   Scattered Clouds
5:35 AM 33.8 °F 27.0 °F 21.2 °F 60% 30.07 in 10.0 mi NNW 8.1 mph - N/A   Scattered Clouds
5:55 AM 33.8 °F 26.4 °F 21.2 °F 60% 30.07 in 10.0 mi North 9.2 mph - N/A   Scattered Clouds
6:15 AM 32.0 °F 24.2 °F 21.2 °F 64% 30.07 in 10.0 mi NNW 9.2 mph - N/A   Scattered Clouds
6:35 AM 32.0 °F 24.8 °F 21.2 °F 64% 30.07 in 10.0 mi NNW 8.1 mph - N/A   Clear
6:55 AM 32.0 °F 24.8 °F 21.2 °F 64% 30.07 in 10.0 mi NNW 8.1 mph - N/A   Clear
7:15 AM 30.2 °F 21.9 °F 21.2 °F 69% 30.08 in 10.0 mi NNW 9.2 mph - N/A   Scattered Clouds
7:35 AM 30.2 °F 21.9 °F 21.2 °F 69% 30.08 in 10.0 mi NNW 9.2 mph - N/A   Scattered Clouds
7:55 AM 30.2 °F 22.6 °F 21.2 °F 69% 30.09 in 10.0 mi NNW 8.1 mph - N/A   Clear
8:15 AM 32.0 °F 24.2 °F 21.2 °F 64% 30.09 in 10.0 mi NNW 9.2 mph - N/A   Clear
8:35 AM 33.8 °F 25.3 °F 23.0 °F 65% 30.10 in 10.0 mi North 11.5 mph 16.1 mph N/A   Clear
8:55 AM 33.8 °F 25.3 °F 23.0 °F 65% 30.10 in 10.0 mi NNW 11.5 mph 18.4 mph N/A   Clear
9:15 AM 35.6 °F 28.6 °F 23.0 °F 60% 30.10 in 10.0 mi North 9.2 mph 17.3 mph N/A   Clear
9:35 AM 37.4 °F 29.8 °F 24.8 °F 60% 30.10 in 10.0 mi North 11.5 mph - N/A   Clear
9:55 AM 39.2 °F 30.8 °F 24.8 °F 56% 30.10 in 10.0 mi NNW 15.0 mph 20.7 mph N/A   Clear
10:15 AM 41.0 °F 33.1 °F 24.8 °F 53% 30.10 in 10.0 mi North 15.0 mph 21.9 mph N/A   Clear
10:35 AM 42.8 °F 35.4 °F 24.8 °F 49% 30.10 in 10.0 mi North 15.0 mph 21.9 mph N/A   Scattered Clouds
11:15 AM 42.8 °F 35.1 °F 24.8 °F 49% 30.10 in 10.0 mi North 16.1 mph 19.6 mph N/A   Mostly Cloudy
11:35 AM 44.6 °F 38.4 °F 24.8 °F 46% 30.10 in 10.0 mi North 12.7 mph 17.3 mph N/A   Mostly Cloudy
11:55 AM 44.6 °F 37.4 °F 24.8 °F 46% 30.10 in 10.0 mi North 16.1 mph 23.0 mph N/A   Overcast
12:15 PM 44.6 °F 37.8 °F 24.8 °F 46% 30.10 in 10.0 mi North 15.0 mph 23.0 mph N/A   Overcast
12:35 PM 46.4 °F 40.4 °F 24.8 °F 43% 30.10 in 10.0 mi North 13.8 mph 18.4 mph N/A   Overcast
12:55 PM 46.4 °F 41.5 °F 24.8 °F 43% 30.10 in 10.0 mi North 10.4 mph 18.4 mph N/A   Overcast
1:15 PM 48.2 °F - 24.8 °F 40% 30.09 in 10.0 mi North 15.0 mph 23.0 mph N/A   Overcast
1:35 PM 46.4 °F 41.5 °F 24.8 °F 43% 30.08 in 10.0 mi NNW 10.4 mph 24.2 mph N/A   Overcast
1:55 PM 48.2 °F - 24.8 °F 40% 30.07 in 10.0 mi North 13.8 mph 21.9 mph N/A   Mostly Cloudy
2:15 PM 48.2 °F - 24.8 °F 40% 30.07 in 10.0 mi North 11.5 mph 19.6 mph N/A   Scattered Clouds
2:55 PM 50.0 °F - 23.0 °F 35% 30.06 in 10.0 mi NNW 10.4 mph 19.6 mph N/A   Clear
3:15 PM 50.0 °F - 23.0 °F 35% 30.05 in 10.0 mi North 13.8 mph 19.6 mph N/A   Clear
3:55 PM 50.0 °F - 23.0 °F 35% 30.05 in 10.0 mi North 11.5 mph 18.4 mph N/A   Clear
4:15 PM 50.0 °F - 21.2 °F 32% 30.05 in 10.0 mi North 11.5 mph 19.6 mph N/A   Clear
4:35 PM 50.0 °F - 21.2 °F 32% 30.05 in 10.0 mi North 12.7 mph 19.6 mph N/A   Clear
4:55 PM 48.2 °F - 21.2 °F 34% 30.05 in 10.0 mi North 10.4 mph 17.3 mph N/A   Clear
5:15 PM 48.2 °F - 19.4 °F 32% 30.05 in 10.0 mi North 11.5 mph 18.4 mph N/A   Clear
5:35 PM 48.2 °F - 19.4 °F 32% 30.05 in 10.0 mi North 11.5 mph - N/A   Clear
5:55 PM 46.4 °F 41.5 °F 21.2 °F 37% 30.06 in 10.0 mi North 10.4 mph 16.1 mph N/A   Clear
6:15 PM 46.4 °F 42.4 °F 21.2 °F 37% 30.06 in 10.0 mi North 8.1 mph - N/A   Clear
6:35 PM 44.6 °F 40.7 °F 21.2 °F 39% 30.07 in 10.0 mi North 6.9 mph - N/A   Clear
6:55 PM 42.8 °F 39.3 °F 23.0 °F 46% 30.07 in 10.0 mi North 5.8 mph - N/A   Clear
7:15 PM 41.0 °F 38.0 °F 23.0 °F 49% 30.07 in 10.0 mi North 4.6 mph - N/A   Clear
7:35 PM 39.2 °F 35.9 °F 23.0 °F 52% 30.07 in 10.0 mi NNW 4.6 mph - N/A   Clear
7:55 PM 39.2 °F 34.2 °F 21.2 °F 49% 30.07 in 10.0 mi NNW 6.9 mph - N/A   Clear
8:35 PM 39.2 °F 35.0 °F 21.2 °F 49% 30.07 in 10.0 mi NNW 5.8 mph - N/A   Scattered Clouds
8:55 PM 37.4 °F 33.8 °F 21.2 °F 52% 30.07 in 10.0 mi NNW 4.6 mph - N/A   Scattered Clouds
9:15 PM 37.4 °F 32.1 °F 21.2 °F 52% 30.07 in 10.0 mi NNW 6.9 mph - N/A   Scattered Clouds
9:35 PM 37.4 °F 32.1 °F 23.0 °F 56% 30.07 in 10.0 mi NNW 6.9 mph - N/A   Mostly Cloudy
9:55 PM 37.4 °F 32.8 °F 23.0 °F 56% 30.07 in 10.0 mi NNW 5.8 mph - N/A   Mostly Cloudy
10:15 PM 37.4 °F 32.8 °F 24.8 °F 60% 30.07 in 10.0 mi North 5.8 mph - N/A   Mostly Cloudy
10:35 PM 37.4 °F 30.8 °F 24.8 °F 60% 30.07 in 10.0 mi North 9.2 mph - N/A   Mostly Cloudy
10:55 PM 37.4 °F 32.1 °F 26.6 °F 65% 30.06 in 10.0 mi North 6.9 mph - N/A   Scattered Clouds
11:15 PM 37.4 °F 33.8 °F 26.6 °F 65% 30.06 in 10.0 mi North 4.6 mph - N/A   Clear
11:35 PM 35.6 °F 30.7 °F 26.6 °F 70% 30.05 in 10.0 mi North 5.8 mph - N/A   Scattered Clouds
11:55 PM 35.6 °F 29.9 °F 26.6 °F 70% 30.05 in 10.0 mi North 6.9 mph - N/A   Scattered Clouds